Weather History for KY50 - November, 2013

Change the Weather History Date:

Wednesday, November 13, 2013

  Actual Average (KPCZ) Record (KPCZ)
Temperature  
Mean Temperature 30 °F -  
Max Temperature 43 °F 40 °F 64 °F (1952)
Min Temperature 16 °F 24 °F -1 °F (1986)
Degree Days  
Heating Degree Days 36    
Moisture  
Dew Point -    
Average Humidity    
Maximum Humidity    
Minimum Humidity    
Precipitation  
Precipitation 0.00 in - - ()
Sea Level Pressure  
Sea Level Pressure 30.23 in    
Wind  
Wind Speed 8 mph (SW)    
Max Wind Speed 20 mph    
Max Gust Speed 26 mph    
Visibility 10 miles    
Events      
Averages and records for this station are not official NWS values.
T = Trace of Precipitation, MM = Missing Value Source: NWS Daily Summary

Daily Weather History Graph

Daily Weather History Graph

Search for Another Location

Airport or City:

Trip Planner

Search our weather history database for the weather conditions in past years. The results will help you decide how hot, cold, wet, or windy it might be!

Date:

Astronomy

Nov. 13, 2013 Rise Set
Actual Time 6:50 AM CST 4:32 PM CST
Civil Twilight 6:18 AM CST 5:03 PM CST
Nautical Twilight 5:44 AM CST 5:38 PM CST
Astronomical Twilight 5:10 AM CST 6:12 PM CST
Moon 2:26 PM CST (11/13) 2:35 AM CST (11/13)
Length of Visible Light 10h 44m
Length of Day
9h 42m
Waxing Gibbous, 85% of the Moon is Illuminated
Nov 13
Waxing Gibbous
Nov 17
Full
Nov 25
Last Quarter
Dec 2
New
Dec 9
First Quarter

Hourly Weather History & Observations

Time (CST) Temp. Windchill Dew Point Humidity Pressure Visibility Wind Dir Wind Speed Gust Speed Precip Events Conditions
12:56 AM 17.1 °F 10.0 °F - N/A% 30.53 in 10.0 mi SW 4.6 mph - N/A   Clear
1:56 AM 16.2 °F 9.0 °F - N/A% 30.53 in 10.0 mi SW 4.6 mph - N/A   Clear
2:56 AM 16.2 °F 9.0 °F - N/A% 30.50 in 10.0 mi SW 4.6 mph - N/A   Clear
3:56 AM 16.2 °F 9.0 °F - N/A% 30.48 in 10.0 mi SW 4.6 mph - N/A   Clear
4:56 AM 16.2 °F 10.6 °F - N/A% 30.47 in 10.0 mi SSW 3.5 mph - N/A   Clear
5:56 AM 16.2 °F 7.6 °F - N/A% 30.44 in 10.0 mi SSW 5.8 mph - N/A   Clear
6:56 AM 16.2 °F 7.6 °F - N/A% 30.41 in 10.0 mi South 5.8 mph - N/A   Clear
7:56 AM 19.0 °F 11.1 °F - N/A% 30.38 in 10.0 mi SSW 5.8 mph - N/A   Clear
8:56 AM 24.1 °F 15.2 °F - N/A% 30.34 in 10.0 mi SW 8.1 mph - N/A   Clear
9:56 AM 32.0 °F 23.6 °F - N/A% 30.31 in 10.0 mi SSW 10.4 mph - N/A   Clear
10:56 AM 36.9 °F 26.8 °F - N/A% 30.27 in 10.0 mi WSW 18.4 mph 21.9 mph N/A   Clear
11:56 AM 41.0 °F 33.1 °F - N/A% 30.22 in 10.0 mi SW 15.0 mph 26.5 mph N/A   Clear
12:56 PM 41.9 °F 33.4 °F - N/A% 30.17 in 10.0 mi SW 18.4 mph 23.0 mph N/A   Clear
1:56 PM 43.9 °F 37.2 °F - N/A% 30.12 in 10.0 mi SSW 13.8 mph 20.7 mph N/A   Clear
2:56 PM 43.9 °F 36.5 °F - N/A% 30.08 in 10.0 mi SW 16.1 mph 25.3 mph N/A   Clear
3:56 PM 41.9 °F 33.1 °F - N/A% 30.06 in 10.0 mi SW 19.6 mph 26.5 mph N/A   Clear
4:56 PM 39.9 °F 31.8 °F - N/A% 30.06 in 10.0 mi SW 15.0 mph 23.0 mph N/A   Clear
5:56 PM 37.9 °F 31.5 °F - N/A% 30.06 in 10.0 mi SSW 9.2 mph 18.4 mph N/A   Clear
6:56 PM 37.9 °F 30.0 °F - N/A% 30.05 in 10.0 mi SW 12.7 mph 19.6 mph N/A   Clear
7:56 PM 36.9 °F 28.7 °F - N/A% 30.04 in 10.0 mi SW 12.7 mph - N/A   Clear
8:56 PM 36.0 °F 28.5 °F - N/A% 30.04 in 10.0 mi SW 10.4 mph - N/A   Clear
9:56 PM 34.9 °F 27.1 °F - N/A% 30.02 in 10.0 mi SW 10.4 mph - N/A   Clear
10:56 PM 34.9 °F 27.7 °F - N/A% 30.01 in 10.0 mi SW 9.2 mph - N/A   Clear
11:56 PM 34.0 °F 26.6 °F - N/A% 29.99 in 10.0 mi SW 9.2 mph - N/A   Clear